| time (UTC) | temp F | wind direction | speed knots | gust knots | rain 1hr in | rain 24hr in | rain mn in | humidity % | barometer mb |
| 20260505224352 | 76 | 98 | 0.9 | 7.8 | 0.00 | 0.00 | 0.00 | 40 | 1009.0 |
| 20260505223849 | 76 | 282 | 4.3 | 8.7 | 0.00 | 0.00 | 0.00 | 38 | 1009.0 |
| 20260505223346 | 76 | 114 | 0.9 | 2.6 | 0.00 | 0.00 | 0.00 | 42 | 1009.0 |
| 20260505222842 | 76 | 186 | 4.3 | 5.2 | 0.00 | 0.00 | 0.00 | 39 | 1008.7 |
| 20260505222338 | 76 | 319 | 3.5 | 6.1 | 0.00 | 0.00 | 0.00 | 41 | 1008.7 |
| 20260505221835 | 76 | 125 | 0.0 | 1.7 | 0.00 | 0.00 | 0.00 | 40 | 1008.8 |
| 20260505221332 | 76 | 119 | 2.6 | 3.5 | 0.00 | 0.00 | 0.00 | 40 | 1008.8 |
| 20260505220829 | 76 | 94 | 0.9 | 2.6 | 0.00 | 0.00 | 0.00 | 40 | 1008.9 |
| 20260505220326 | 77 | 133 | 1.7 | 3.5 | 0.00 | 0.00 | 0.00 | 40 | 1009.0 |
| 20260505215824 | 77 | 100 | 1.7 | 5.2 | 0.00 | 0.00 | 0.00 | 41 | 1008.9 |
| 20260505215322 | 77 | 203 | 2.6 | 7.8 | 0.00 | 0.00 | 0.00 | 38 | 1009.0 |
| 20260505214820 | 77 | 107 | 0.9 | 5.2 | 0.00 | 0.00 | 0.00 | 40 | 1008.9 |
| 20260505214317 | 77 | 141 | 0.9 | 7.8 | 0.00 | 0.00 | 0.00 | 38 | 1009.1 |
| 20260505213813 | 77 | 108 | 1.7 | 6.1 | 0.00 | 0.00 | 0.00 | 40 | 1008.8 |
| 20260505213312 | 77 | 323 | 2.6 | 3.5 | 0.00 | 0.00 | 0.00 | 37 | 1008.9 |
| 20260505212807 | 77 | 82 | 2.6 | 5.2 | 0.00 | 0.00 | 0.00 | 38 | 1008.8 |
| 20260505212306 | 77 | 256 | 1.7 | 7.0 | 0.00 | 0.00 | 0.00 | 38 | 1008.7 |
| 20260505211800 | 77 | 319 | 1.7 | 3.5 | 0.00 | 0.00 | 0.00 | 37 | 1008.7 |
| 20260505211259 | 77 | 129 | 0.0 | 2.6 | 0.00 | 0.00 | 0.00 | 38 | 1008.8 |
| 20260505210754 | 77 | 72 | 1.7 | 3.5 | 0.00 | 0.00 | 0.00 | 38 | 1008.7 |
| 20260505210252 | 78 | 194 | 0.9 | 5.2 | 0.00 | 0.00 | 0.00 | 37 | 1008.5 |
| 20260505205749 | 77 | 221 | 3.5 | 5.2 | 0.00 | 0.00 | 0.00 | 37 | 1008.6 |
| 20260505205247 | 77 | 59 | 0.0 | 2.6 | 0.00 | 0.00 | 0.00 | 40 | 1008.6 |
| 20260505204743 | 77 | 114 | 0.0 | 6.1 | 0.00 | 0.00 | 0.00 | 38 | 1008.3 |
| 20260505204241 | 78 | 84 | 1.7 | 2.6 | 0.00 | 0.00 | 0.00 | 37 | 1008.4 |
| 20260505203738 | 79 | 221 | 0.0 | 12.2 | 0.00 | 0.00 | 0.00 | 35 | 1008.5 |
| 20260505203235 | 79 | 330 | 5.2 | 7.8 | 0.00 | 0.00 | 0.00 | 34 | 1008.4 |
| 20260505202731 | 80 | 153 | 2.6 | 7.0 | 0.00 | 0.00 | 0.00 | 35 | 1008.6 |
| 20260505202227 | 79 | 105 | 2.6 | 3.5 | 0.00 | 0.00 | 0.00 | 34 | 1008.6 |
| 20260505201724 | 79 | 25 | 1.7 | 7.8 | 0.00 | 0.00 | 0.00 | 33 | 1008.5 |
| 20260505201222 | 79 | 205 | 3.5 | 7.0 | 0.00 | 0.00 | 0.00 | 34 | 1008.7 |
| 20260505200719 | 80 | 145 | 0.9 | 1.7 | 0.00 | 0.00 | 0.00 | 33 | 1008.7 |
| 20260505200216 | 80 | 99 | 0.9 | 5.2 | 0.00 | 0.00 | 0.00 | 33 | 1008.6 |
| 20260505195712 | 80 | 234 | 0.9 | 5.2 | 0.00 | 0.00 | 0.00 | 32 | 1008.8 |
| 20260505195209 | 81 | 180 | 2.6 | 6.1 | 0.00 | 0.00 | 0.00 | 32 | 1008.7 |
| 20260505194707 | 82 | 229 | 1.7 | 2.6 | 0.00 | 0.00 | 0.00 | 32 | 1008.6 |
| 20260505194203 | 81 | 167 | 1.7 | 6.1 | 0.00 | 0.00 | 0.00 | 31 | 1008.5 |
| 20260505193659 | 81 | 230 | 2.6 | 3.5 | 0.00 | 0.00 | 0.00 | 32 | 1008.6 |
| 20260505193156 | 81 | 141 | 1.7 | 3.5 | 0.00 | 0.00 | 0.00 | 30 | 1008.6 |
| 20260505192655 | 81 | 83 | 1.7 | 5.2 | 0.00 | 0.00 | 0.00 | 31 | 1008.8 |
| 20260505192152 | 81 | 290 | 3.5 | 6.1 | 0.00 | 0.00 | 0.00 | 31 | 1008.6 |
| 20260505191650 | 81 | 212 | 1.7 | 1.7 | 0.00 | 0.00 | 0.00 | 32 | 1008.6 |
| 20260505191148 | 81 | 140 | 0.9 | 7.0 | 0.00 | 0.00 | 0.00 | 33 | 1008.7 |
| 20260505190644 | 81 | 116 | 2.6 | 2.6 | 0.00 | 0.00 | 0.00 | 33 | 1008.9 |
| 20260505190144 | 82 | 309 | 2.6 | 5.2 | 0.00 | 0.00 | 0.00 | 32 | 1008.7 |
| 20260505185641 | 81 | 127 | 3.5 | 5.2 | 0.00 | 0.00 | 0.00 | 31 | 1009.1 |
| 20260505185137 | 81 | 83 | 0.9 | 2.6 | 0.00 | 0.00 | 0.00 | 32 | 1008.8 |
| 20260505184634 | 83 | 120 | 3.5 | 9.6 | 0.00 | 0.00 | 0.00 | 33 | 1009.0 |
| 20260505184131 | 82 | 134 | 1.7 | 3.5 | 0.00 | 0.00 | 0.00 | 32 | 1009.1 |
| 20260505183627 | 82 | 264 | 1.7 | 6.1 | 0.00 | 0.00 | 0.00 | 33 | 1009.1 |
| 20260505183125 | 79 | 96 | 1.7 | 7.0 | 0.00 | 0.00 | 0.00 | 37 | 1009.3 |
| 20260505182621 | 81 | 91 | 1.7 | 2.6 | 0.00 | 0.00 | 0.00 | 35 | 1009.4 |
| 20260505182118 | 81 | 14 | 2.6 | 7.0 | 0.00 | 0.00 | 0.00 | 34 | 1009.3 |
| 20260505181615 | 80 | 55 | 2.6 | 5.2 | 0.00 | 0.00 | 0.00 | 38 | 1009.3 |
| 20260505181112 | 79 | 271 | 7.0 | 9.6 | 0.00 | 0.00 | 0.00 | 37 | 1009.5 |
| 20260505180608 | 81 | 272 | 4.3 | 6.1 | 0.00 | 0.00 | 0.00 | 36 | 1009.5 |
| 20260505180106 | 82 | 107 | 0.0 | 1.7 | 0.00 | 0.00 | 0.00 | 36 | 1009.6 |
| 20260505175601 | 80 | 176 | 3.5 | 3.5 | 0.00 | 0.00 | 0.00 | 39 | 1009.8 |
| 20260505175058 | 79 | 134 | 1.7 | 5.2 | 0.00 | 0.00 | 0.00 | 39 | 1009.6 |
| 20260505174555 | 80 | 7 | 1.7 | 6.1 | 0.00 | 0.00 | 0.00 | 38 | 1009.7 |
| 20260505174050 | 81 | 176 | 0.0 | 8.7 | 0.00 | 0.00 | 0.00 | 38 | 1009.7 |
| 20260505173548 | 79 | 336 | 2.6 | 7.8 | 0.00 | 0.00 | 0.00 | 37 | 1009.9 |
| 20260505173044 | 80 | 91 | 0.9 | 2.6 | 0.00 | 0.00 | 0.00 | 38 | 1009.7 |
| 20260505172542 | 80 | 321 | 0.9 | 6.1 | 0.00 | 0.00 | 0.00 | 39 | 1009.8 |
| 20260505172038 | 78 | 153 | 1.7 | 6.1 | 0.00 | 0.00 | 0.00 | 39 | 1009.8 |
| 20260505171533 | 79 | 272 | 3.5 | 6.1 | 0.00 | 0.00 | 0.00 | 39 | 1009.9 |
| 20260505171030 | 79 | 348 | 4.3 | 7.0 | 0.00 | 0.00 | 0.00 | 40 | 1009.8 |
| 20260505170527 | 80 | 82 | 1.7 | 3.5 | 0.00 | 0.00 | 0.00 | 39 | 1010.0 |
| 20260505170024 | 79 | 90 | 1.7 | 3.5 | 0.00 | 0.00 | 0.00 | 42 | 1010.1 |
| 20260505165519 | 79 | 82 | 0.9 | 5.2 | 0.00 | 0.00 | 0.00 | 41 | 1010.1 |
| 20260505165015 | 78 | 263 | 5.2 | 7.0 | 0.00 | 0.00 | 0.00 | 40 | 1010.5 |
| 20260505164511 | 79 | 80 | 1.7 | 5.2 | 0.00 | 0.00 | 0.00 | 42 | 1010.2 |
| 20260505164009 | 79 | 126 | 0.9 | 3.5 | 0.00 | 0.00 | 0.00 | 45 | 1010.4 |
| 20260505163508 | 77 | 100 | 0.9 | 1.7 | 0.00 | 0.00 | 0.00 | 45 | 1010.4 |
| 20260505163004 | 78 | 286 | 2.6 | 7.0 | 0.00 | 0.00 | 0.00 | 43 | 1010.6 |
| 20260505162457 | 77 | 155 | 0.0 | 1.7 | 0.00 | 0.00 | 0.00 | 45 | 1010.5 |
| 20260505161953 | 78 | 264 | 5.2 | 6.1 | 0.00 | 0.00 | 0.00 | 44 | 1010.5 |
| 20260505161450 | 76 | 133 | 0.9 | 2.6 | 0.00 | 0.00 | 0.00 | 47 | 1010.7 |
| 20260505160947 | 77 | 353 | 1.7 | 1.7 | 0.00 | 0.00 | 0.00 | 45 | 1010.5 |
| 20260505160446 | 76 | 206 | 2.6 | 3.5 | 0.00 | 0.00 | 0.00 | 45 | 1010.6 |
| 20260505152922 | 74 | 88 | 0.9 | 1.7 | 0.00 | 0.00 | 0.00 | 51 | 1010.9 |
| 20260505152419 | 74 | 133 | 1.7 | 2.6 | 0.00 | 0.00 | 0.00 | 51 | 1010.9 |
| 20260505151913 | 73 | 151 | 0.9 | 0.9 | 0.00 | 0.00 | 0.00 | 54 | 1010.9 |
| 20260505151410 | 72 | 87 | 0.9 | 1.7 | 0.00 | 0.00 | 0.00 | 55 | 1011.1 |
| 20260505150907 | 71 | 138 | 1.7 | 1.7 | 0.00 | 0.00 | 0.00 | 56 | 1011.2 |
| 20260505150404 | 71 | 271 | 1.7 | 2.6 | 0.00 | 0.00 | 0.00 | 59 | 1011.1 |
| 20260505140328 | 65 | 159 | 0.9 | 1.7 | 0.00 | 0.00 | 0.00 | 67 | 1011.8 |
| 20260505130251 | 61 | 106 | 0.9 | 1.7 | 0.00 | 0.00 | 0.00 | 73 | 1011.6 |
| 20260505124742 | 60 | 89 | 0.0 | 0.0 | 0.00 | 0.00 | 0.00 | 74 | 1011.6 |
| 20260505124239 | 59 | 80 | 0.9 | 0.9 | 0.00 | 0.00 | 0.00 | 74 | 1011.7 |
| 20260505123734 | 59 | 99 | 0.9 | 0.9 | 0.00 | 0.00 | 0.00 | 75 | 1011.7 |
| 20260505123231 | 59 | 136 | 0.9 | 0.9 | 0.00 | 0.00 | 0.00 | 77 | 1011.7 |
| 20260505122728 | 59 | 94 | 0.0 | 0.9 | 0.00 | 0.00 | 0.00 | 75 | 1011.6 |
| 20260505122225 | 59 | 144 | 0.9 | 1.7 | 0.00 | 0.00 | 0.00 | 75 | 1011.5 |
| 20260505121722 | 59 | 158 | 0.9 | 2.6 | 0.00 | 0.00 | 0.00 | 76 | 1011.6 |
| 20260505121218 | 59 | 190 | 2.6 | 3.5 | 0.00 | 0.00 | 0.00 | 76 | 1011.5 |
| 20260505120715 | 58 | 97 | 0.0 | 0.0 | 0.00 | 0.00 | 0.00 | 78 | 1011.2 |
| 20260505120211 | 58 | 106 | 0.0 | 0.0 | 0.00 | 0.00 | 0.00 | 78 | 1011.3 |
| 20260505115710 | 58 | 98 | 0.0 | 0.0 | 0.00 | 0.00 | 0.00 | 79 | 1011.1 |
| 20260505115208 | 58 | 97 | 0.0 | 0.0 | 0.00 | 0.00 | 0.00 | 78 | 1011.1 |
| 20260505114705 | 57 | 101 | 0.0 | 0.0 | 0.00 | 0.00 | 0.00 | 78 | 1011.3 |
| 20260505114201 | 57 | 100 | 0.0 | 0.0 | 0.00 | 0.00 | 0.00 | 79 | 1011.3 |
| 20260505113658 | 57 | 102 | 0.0 | 0.0 | 0.00 | 0.00 | 0.00 | 79 | 1011.3 |
| 20260505113154 | 56 | 101 | 0.0 | 0.9 | 0.00 | 0.00 | 0.00 | 81 | 1011.3 |
| 20260505112651 | 56 | 113 | 0.0 | 0.9 | 0.00 | 0.00 | 0.00 | 81 | 1011.3 |
| 20260505112149 | 56 | 99 | 0.0 | 0.0 | 0.00 | 0.00 | 0.00 | 83 | 1011.5 |
| 20260505111648 | 56 | 100 | 0.0 | 0.0 | 0.00 | 0.00 | 0.00 | 83 | 1011.5 |
| 20260505111144 | 55 | 102 | 0.0 | 0.0 | 0.00 | 0.00 | 0.00 | 84 | 1011.5 |
| 20260505110640 | 55 | 96 | 0.0 | 0.0 | 0.00 | 0.00 | 0.00 | 83 | 1011.2 |
| 20260505110138 | 55 | 99 | 0.0 | 0.0 | 0.00 | 0.00 | 0.00 | 85 | 1011.3 |
| 20260505102114 | 54 | 106 | 0.0 | 0.0 | 0.00 | 0.00 | 0.00 | 88 | 1011.0 |
| 20260505101612 | 54 | 102 | 0.0 | 0.0 | 0.00 | 0.00 | 0.00 | 90 | 1010.8 |
| 20260505101108 | 55 | 99 | 0.0 | 0.0 | 0.00 | 0.00 | 0.00 | 88 | 1010.6 |
| 20260505100604 | 57 | 90 | 0.0 | 0.0 | 0.00 | 0.00 | 0.00 | 85 | 1010.6 |
| 20260505095558 | 58 | 118 | 0.9 | 0.9 | 0.00 | 0.00 | 0.00 | 76 | 1010.9 |
| 20260505095054 | 58 | 118 | 0.9 | 0.9 | 0.00 | 0.00 | 0.00 | 76 | 1010.7 |
| 20260505094551 | 58 | 113 | 0.0 | 0.0 | 0.00 | 0.00 | 0.00 | 77 | 1010.7 |
| 20260505094047 | 57 | 51 | 0.9 | 1.7 | 0.00 | 0.00 | 0.00 | 78 | 1010.8 |
| 20260505093543 | 58 | 119 | 0.9 | 1.7 | 0.00 | 0.00 | 0.00 | 76 | 1010.9 |
| 20260505093041 | 58 | 45 | 1.7 | 2.6 | 0.00 | 0.00 | 0.00 | 74 | 1011.3 |
| 20260505092538 | 58 | 249 | 4.3 | 5.2 | 0.00 | 0.00 | 0.00 | 73 | 1011.0 |
| 20260505092037 | 58 | 273 | 3.5 | 5.2 | 0.00 | 0.00 | 0.00 | 68 | 1010.9 |
| 20260505091533 | 58 | 182 | 1.7 | 1.7 | 0.00 | 0.00 | 0.00 | 69 | 1010.8 |
| 20260505091031 | 58 | 119 | 0.9 | 0.9 | 0.00 | 0.00 | 0.00 | 68 | 1010.8 |
| 20260505090529 | 57 | 354 | 1.7 | 1.7 | 0.00 | 0.00 | 0.00 | 71 | 1010.9 |
| 20260505090027 | 57 | 63 | 0.9 | 0.9 | 0.00 | 0.00 | 0.00 | 71 | 1010.8 |
| 20260505085524 | 58 | 237 | 2.6 | 3.5 | 0.00 | 0.00 | 0.00 | 67 | 1010.7 |
| 20260505085022 | 58 | 237 | 2.6 | 3.5 | 0.00 | 0.00 | 0.00 | 67 | 1010.6 |
| 20260505084520 | 58 | 105 | 1.7 | 1.7 | 0.00 | 0.00 | 0.00 | 68 | 1010.7 |
| 20260505084018 | 57 | 156 | 0.9 | 1.7 | 0.00 | 0.00 | 0.00 | 70 | 1010.8 |
| 20260505083515 | 57 | 79 | 0.9 | 0.9 | 0.00 | 0.00 | 0.00 | 70 | 1010.5 |
| 20260505083011 | 57 | 79 | 0.9 | 0.9 | 0.00 | 0.00 | 0.00 | 70 | 1010.4 |
| 20260505082507 | 57 | 180 | 0.9 | 2.6 | 0.00 | 0.00 | 0.00 | 71 | 1010.4 |
| 20260505082004 | 57 | 103 | 0.0 | 0.0 | 0.00 | 0.00 | 0.00 | 69 | 1010.1 |
| 20260505081501 | 57 | 116 | 0.9 | 0.9 | 0.00 | 0.00 | 0.00 | 68 | 1010.2 |
| 20260505080957 | 57 | 20 | 1.7 | 1.7 | 0.00 | 0.00 | 0.00 | 69 | 1010.3 |
| 20260505080454 | 57 | 20 | 1.7 | 3.5 | 0.00 | 0.00 | 0.00 | 69 | 1010.3 |
| 20260505075949 | 57 | 110 | 0.9 | 0.9 | 0.00 | 0.00 | 0.00 | 69 | 1010.3 |
| 20260505075446 | 57 | 110 | 0.9 | 0.9 | 0.00 | 0.00 | 0.00 | 69 | 1010.4 |
| 20260505074943 | 57 | 99 | 0.0 | 0.0 | 0.00 | 0.00 | 0.00 | 69 | 1010.3 |
| 20260505074441 | 58 | 182 | 1.7 | 1.7 | 0.00 | 0.00 | 0.00 | 66 | 1010.4 |
| 20260505073938 | 58 | 152 | 1.7 | 2.6 | 0.00 | 0.00 | 0.00 | 65 | 1010.6 |
| 20260505073436 | 58 | 175 | 1.7 | 1.7 | 0.00 | 0.00 | 0.00 | 66 | 1010.3 |
| 20260505072932 | 58 | 76 | 0.9 | 0.9 | 0.00 | 0.00 | 0.00 | 67 | 1010.2 |
| 20260505072429 | 58 | 189 | 2.6 | 3.5 | 0.00 | 0.00 | 0.00 | 65 | 1010.2 |
| 20260505071925 | 58 | 130 | 1.7 | 1.7 | 0.00 | 0.00 | 0.00 | 67 | 1010.5 |
| 20260505071421 | 58 | 123 | 0.9 | 0.9 | 0.00 | 0.00 | 0.00 | 63 | 1010.2 |
| 20260505070919 | 58 | 123 | 0.9 | 0.9 | 0.00 | 0.00 | 0.00 | 63 | 1010.3 |
| 20260505070415 | 58 | 125 | 1.7 | 2.6 | 0.00 | 0.00 | 0.00 | 63 | 1010.4 |
| 20260505065911 | 58 | 117 | 0.9 | 0.9 | 0.00 | 0.00 | 0.00 | 65 | 1010.4 |
| 20260505065408 | 58 | 95 | 0.0 | 0.0 | 0.00 | 0.00 | 0.00 | 64 | 1010.5 |
| 20260505064905 | 58 | 95 | 0.0 | 0.0 | 0.00 | 0.00 | 0.00 | 64 | 1010.4 |
| 20260505064402 | 58 | 112 | 0.0 | 0.9 | 0.00 | 0.00 | 0.00 | 63 | 1010.5 |
| 20260505063900 | 58 | 150 | 0.0 | 0.9 | 0.00 | 0.00 | 0.00 | 63 | 1010.5 |
| 20260505063356 | 58 | 110 | 0.0 | 0.0 | 0.00 | 0.00 | 0.00 | 64 | 1010.5 |
| 20260505062852 | 58 | 101 | 0.9 | 0.9 | 0.00 | 0.00 | 0.00 | 62 | 1010.4 |
| 20260505062349 | 58 | 101 | 0.9 | 0.9 | 0.00 | 0.00 | 0.00 | 62 | 1010.4 |
| 20260505061846 | 58 | 113 | 0.9 | 1.7 | 0.00 | 0.00 | 0.00 | 64 | 1010.6 |
| 20260505061344 | 58 | 106 | 0.9 | 1.7 | 0.00 | 0.00 | 0.00 | 61 | 1010.5 |
| 20260505060842 | 59 | 137 | 0.9 | 0.9 | 0.00 | 0.00 | 0.00 | 61 | 1010.4 |
| 20260505060338 | 58 | 158 | 1.7 | 1.7 | 0.00 | 0.00 | 0.00 | 61 | 1010.5 |
| 20260505055834 | 58 | 263 | 0.9 | 3.5 | 0.00 | 0.00 | 0.00 | 63 | 1010.6 |
| 20260505055330 | 58 | 106 | 0.9 | 0.9 | 0.00 | 0.00 | 0.00 | 61 | 1010.4 |
| 20260505054828 | 58 | 113 | 0.0 | 0.9 | 0.00 | 0.00 | 0.00 | 62 | 1010.3 |
| 20260505054325 | 58 | 94 | 0.0 | 0.9 | 0.00 | 0.00 | 0.00 | 60 | 1010.5 |
| 20260505053823 | 58 | 120 | 0.9 | 1.7 | 0.00 | 0.00 | 0.00 | 62 | 1010.6 |
| 20260505053320 | 58 | 102 | 0.9 | 0.9 | 0.00 | 0.00 | 0.00 | 62 | 1010.3 |
| 20260505052816 | 57 | 94 | 0.0 | 0.9 | 0.00 | 0.00 | 0.00 | 62 | 1010.5 |
| 20260505052313 | 57 | 101 | 0.0 | 0.9 | 0.00 | 0.00 | 0.00 | 62 | 1010.5 |
| 20260505051811 | 58 | 114 | 0.9 | 0.9 | 0.00 | 0.00 | 0.00 | 61 | 1010.6 |
| 20260505051308 | 57 | 98 | 0.0 | 0.9 | 0.00 | 0.00 | 0.00 | 61 | 1010.5 |
| 20260505050806 | 57 | 92 | 0.0 | 0.0 | 0.00 | 0.00 | 0.00 | 61 | 1010.3 |
| 20260505050305 | 57 | 93 | 0.9 | 0.9 | 0.00 | 0.00 | 0.00 | 60 | 1010.3 |
| 20260505041734 | 59 | 103 | 0.9 | 1.7 | 0.00 | 0.00 | 0.00 | 57 | 1010.6 |
| 20260505041231 | 59 | 99 | 0.0 | 0.9 | 0.00 | 0.00 | 0.00 | 57 | 1010.5 |
| 20260505040729 | 59 | 97 | 0.0 | 1.7 | 0.00 | 0.00 | 0.00 | 57 | 1010.6 |
| 20260505040226 | 59 | 103 | 0.0 | 0.9 | 0.00 | 0.00 | 0.00 | 57 | 1010.7 |
| 20260505035723 | 59 | 106 | 0.9 | 0.9 | 0.00 | 0.00 | 0.00 | 56 | 1010.5 |
| 20260505035219 | 59 | 107 | 0.9 | 1.7 | 0.00 | 0.00 | 0.00 | 55 | 1010.6 |
| 20260505034716 | 59 | 112 | 0.9 | 0.9 | 0.00 | 0.00 | 0.00 | 55 | 1010.6 |
| 20260505034213 | 60 | 111 | 0.0 | 0.0 | 0.00 | 0.00 | 0.00 | 55 | 1010.5 |
| 20260505033709 | 60 | 98 | 0.0 | 0.0 | 0.00 | 0.00 | 0.00 | 54 | 1010.6 |
| 20260505033208 | 60 | 99 | 0.0 | 0.0 | 0.00 | 0.00 | 0.00 | 56 | 1010.6 |
| 20260505032705 | 60 | 96 | 0.0 | 0.9 | 0.00 | 0.00 | 0.00 | 56 | 1010.6 |
| 20260505032201 | 60 | 103 | 0.0 | 0.0 | 0.00 | 0.00 | 0.00 | 55 | 1010.6 |
| 20260505031658 | 60 | 92 | 0.9 | 0.9 | 0.00 | 0.00 | 0.00 | 55 | 1010.6 |
| 20260505031154 | 60 | 104 | 0.9 | 0.9 | 0.00 | 0.00 | 0.00 | 54 | 1010.8 |
| 20260505030651 | 60 | 96 | 0.9 | 0.9 | 0.00 | 0.00 | 0.00 | 54 | 1010.8 |
| 20260505030146 | 60 | 114 | 1.7 | 1.7 | 0.00 | 0.00 | 0.00 | 54 | 1010.7 |
| 20260505025643 | 60 | 97 | 0.0 | 0.9 | 0.00 | 0.00 | 0.00 | 54 | 1010.7 |
| 20260505025142 | 60 | 103 | 0.9 | 0.9 | 0.00 | 0.00 | 0.00 | 54 | 1010.7 |
| 20260505024639 | 60 | 98 | 0.0 | 0.0 | 0.00 | 0.00 | 0.00 | 53 | 1010.8 |
| 20260505024136 | 60 | 108 | 0.9 | 0.9 | 0.00 | 0.00 | 0.00 | 53 | 1010.8 |
| 20260505023634 | 60 | 123 | 1.7 | 2.6 | 0.00 | 0.00 | 0.00 | 53 | 1010.8 |
| 20260505023131 | 60 | 94 | 0.0 | 0.0 | 0.00 | 0.00 | 0.00 | 53 | 1010.9 |
| 20260505022628 | 60 | 93 | 0.0 | 0.0 | 0.00 | 0.00 | 0.00 | 52 | 1010.8 |
| 20260505022125 | 60 | 97 | 0.0 | 0.0 | 0.00 | 0.00 | 0.00 | 53 | 1010.8 |
| 20260505021622 | 60 | 94 | 0.0 | 0.0 | 0.00 | 0.00 | 0.00 | 53 | 1010.8 |
| 20260505021118 | 60 | 99 | 0.0 | 0.0 | 0.00 | 0.00 | 0.00 | 54 | 1011.0 |
| 20260505020613 | 60 | 97 | 0.0 | 0.0 | 0.00 | 0.00 | 0.00 | 52 | 1010.9 |
| 20260505020110 | 60 | 100 | 0.0 | 0.0 | 0.00 | 0.00 | 0.00 | 53 | 1010.8 |
| 20260505015607 | 60 | 95 | 0.0 | 0.0 | 0.00 | 0.00 | 0.00 | 52 | 1010.7 |
| 20260505015104 | 60 | 98 | 0.0 | 0.0 | 0.00 | 0.00 | 0.00 | 52 | 1010.9 |
| 20260505014600 | 60 | 97 | 0.0 | 0.0 | 0.00 | 0.00 | 0.00 | 54 | 1010.8 |
| 20260505014058 | 60 | 94 | 0.0 | 0.0 | 0.00 | 0.00 | 0.00 | 53 | 1010.8 |
| 20260505013555 | 61 | 91 | 0.0 | 0.0 | 0.00 | 0.00 | 0.00 | 52 | 1010.8 |
| 20260505013052 | 61 | 91 | 0.0 | 0.0 | 0.00 | 0.00 | 0.00 | 52 | 1010.9 |
| 20260505012550 | 61 | 95 | 0.0 | 0.0 | 0.00 | 0.00 | 0.00 | 51 | 1010.6 |
| 20260505012047 | 61 | 99 | 0.0 | 0.0 | 0.00 | 0.00 | 0.00 | 53 | 1010.7 |
| 20260505011542 | 61 | 101 | 0.0 | 0.0 | 0.00 | 0.00 | 0.00 | 53 | 1010.6 |
| 20260505011040 | 61 | 94 | 0.0 | 0.0 | 0.00 | 0.00 | 0.00 | 52 | 1010.6 |
| 20260505010535 | 62 | 101 | 0.9 | 0.9 | 0.00 | 0.00 | 0.00 | 50 | 1010.4 |
| 20260505010032 | 61 | 99 | 0.0 | 0.0 | 0.00 | 0.00 | 0.00 | 51 | 1010.5 |
| 20260505005528 | 61 | 95 | 0.0 | 0.0 | 0.00 | 0.00 | 0.00 | 51 | 1010.5 |
| 20260505005026 | 61 | 96 | 0.0 | 0.0 | 0.00 | 0.00 | 0.00 | 51 | 1010.5 |
| 20260505004523 | 62 | 92 | 0.0 | 0.0 | 0.00 | 0.00 | 0.00 | 50 | 1010.3 |
| 20260505004019 | 62 | 87 | 0.0 | 0.0 | 0.00 | 0.00 | 0.00 | 50 | 1010.2 |
| 20260505003517 | 62 | 96 | 0.0 | 0.0 | 0.00 | 0.00 | 0.00 | 52 | 1010.3 |
| 20260505003014 | 62 | 110 | 0.0 | 0.9 | 0.00 | 0.00 | 0.00 | 51 | 1010.3 |
| 20260505002509 | 62 | 88 | 0.0 | 0.9 | 0.00 | 0.00 | 0.00 | 51 | 1010.2 |
| 20260505002008 | 62 | 94 | 0.0 | 0.0 | 0.00 | 0.00 | 0.00 | 51 | 1010.3 |
| 20260505001505 | 63 | 99 | 0.0 | 0.9 | 0.00 | 0.00 | 0.00 | 51 | 1010.1 |
| 20260505001002 | 63 | 98 | 0.0 | 0.0 | 0.00 | 0.00 | 0.00 | 50 | 1010.2 |
| 20260505000459 | 63 | 95 | 0.0 | 0.0 | 0.00 | 0.00 | 0.00 | 50 | 1010.1 |
| 20260504235956 | 63 | 87 | 0.9 | 0.9 | 0.00 | 0.00 | 0.00 | 49 | 1010.1 |
| 20260504235453 | 63 | 95 | 0.0 | 0.9 | 0.00 | 0.00 | 0.00 | 50 | 1010.0 |
| 20260504234950 | 64 | 95 | 0.0 | 0.0 | 0.00 | 0.00 | 0.00 | 50 | 1010.0 |
| 20260504234447 | 64 | 100 | 0.0 | 0.0 | 0.00 | 0.00 | 0.00 | 49 | 1009.8 |
| 20260504233943 | 64 | 93 | 1.7 | 1.7 | 0.00 | 0.00 | 0.00 | 47 | 1009.9 |
| 20260504233439 | 65 | 96 | 0.0 | 1.7 | 0.00 | 0.00 | 0.00 | 47 | 1009.6 |
| 20260504232936 | 65 | 101 | 0.0 | 0.9 | 0.00 | 0.00 | 0.00 | 47 | 1009.6 |
| 20260504232433 | 65 | 96 | 0.0 | 0.0 | 0.00 | 0.00 | 0.00 | 46 | 1009.7 |
| 20260504231931 | 66 | 93 | 0.0 | 0.0 | 0.00 | 0.00 | 0.00 | 47 | 1009.5 |
| 20260504231427 | 66 | 106 | 0.0 | 2.6 | 0.00 | 0.00 | 0.00 | 44 | 1009.4 |
| 20260504230923 | 66 | 106 | 2.6 | 3.5 | 0.00 | 0.00 | 0.00 | 44 | 1009.4 |
| 20260504230420 | 66 | 94 | 0.0 | 0.0 | 0.00 | 0.00 | 0.00 | 47 | 1009.4 |
| 20260504225919 | 66 | 98 | 0.9 | 0.9 | 0.00 | 0.00 | 0.00 | 45 | 1009.5 |
| 20260504225415 | 67 | 106 | 0.9 | 0.9 | 0.00 | 0.00 | 0.00 | 44 | 1009.2 |
| 20260504224913 | 67 | 107 | 0.0 | 0.9 | 0.00 | 0.00 | 0.00 | 43 | 1009.3 |